Weather History for KLNL - July, 2014

Change the Weather History Date:

Sunday, July 27, 2014

  Actual Average (KEGV) Record (KEGV)
Temperature  
Mean Temperature 60 °F -  
Max Temperature 66 °F 75 °F 84 °F (1997)
Min Temperature 54 °F 55 °F 39 °F (2005)
Degree Days  
Heating Degree Days 5    
Growing Degree Days 10 (Base 50)    
Moisture  
Dew Point 55 °F    
Average Humidity 82    
Maximum Humidity 99    
Minimum Humidity 63    
Precipitation  
Precipitation 0.01 in - - ()
Sea Level Pressure  
Sea Level Pressure 29.85 in    
Wind  
Wind Speed 5 mph (NNW)    
Max Wind Speed 16 mph    
Max Gust Speed 26 mph    
Visibility 10 miles    
Events Rain , Thunderstorm    
Averages and records for this station are not official NWS values.
T = Trace of Precipitation, MM = Missing Value Source: NWS Daily Summary

Daily Weather History Graph

Daily Weather History Graph

Search for Another Location

Airport or City:

Trip Planner

Search our weather history database for the weather conditions in past years. The results will help you decide how hot, cold, wet, or windy it might be!

Date:

Astronomy

Jul. 27, 2014 Rise Set
Actual Time 5:32 AM CDT 8:33 PM CDT
Civil Twilight 4:57 AM CDT 9:08 PM CDT
Nautical Twilight 4:11 AM CDT 9:53 PM CDT
Astronomical Twilight 3:17 AM CDT 10:47 PM CDT
Moon 6:26 AM CDT (7/27) 8:34 PM CDT (7/27)
Length of Visible Light 16h 10m
Length of Day
15h 00m
New Moon, 1% of the Moon is Illuminated
Jul 27
New Moon
Aug 3
First Quarter
Aug 10
Full
Aug 17
Last Quarter
Aug 25
New

Hourly Weather History & Observations

Time (CDT) Temp. Dew Point Humidity Pressure Visibility Wind Dir Wind Speed Gust Speed Precip Events Conditions
12:15 AM 62.6 °F 56.1 °F 79% 29.75 in 10.0 mi Calm Calm - N/A   Scattered Clouds
12:35 AM 61.5 °F 56.3 °F 83% 29.75 in 10.0 mi WSW 3.5 mph - N/A Thunderstorm Thunderstorm
12:55 AM 63.1 °F 56.8 °F 80% 29.75 in 10.0 mi SW 4.6 mph - N/A   Clear
1:15 AM 64.6 °F 58.3 °F 80% 29.76 in 10.0 mi South 4.6 mph - N/A Thunderstorm Thunderstorm
1:35 AM 64.9 °F 58.5 °F 79% 29.77 in 10.0 mi Calm Calm - N/A Thunderstorm Scattered Clouds
1:55 AM 63.9 °F 58.1 °F 81% 29.77 in 10.0 mi SW 3.5 mph - N/A   Clear
2:15 AM 63.0 °F 57.6 °F 82% 29.76 in 10.0 mi WSW 3.5 mph - N/A Thunderstorm Clear
2:35 AM 62.8 °F 57.2 °F 82% 29.75 in 10.0 mi Calm Calm - N/A   Scattered Clouds
2:55 AM 60.8 °F 56.5 °F 86% 29.75 in 10.0 mi WSW 3.5 mph - N/A   Clear
3:15 AM 61.5 °F 57.4 °F 86% 29.74 in 10.0 mi West 3.5 mph - N/A   Scattered Clouds
3:35 AM 59.0 °F 56.7 °F 92% 29.74 in 10.0 mi Calm Calm - N/A   Clear
3:55 AM 58.3 °F 56.7 °F 94% 29.73 in 10.0 mi WSW 3.5 mph - N/A   Clear
4:15 AM 57.4 °F 55.9 °F 95% 29.73 in 10.0 mi Calm Calm - N/A   Clear
4:35 AM 56.5 °F 55.0 °F 95% 29.72 in 10.0 mi Calm Calm - N/A   Clear
4:55 AM 54.7 °F 53.8 °F 97% 29.72 in 0.8 mi Calm Calm - N/A   Mostly Cloudy
5:15 AM 54.9 °F 54.3 °F 98% 29.72 in 7.0 mi Calm Calm - N/A   Overcast
5:35 AM 54.5 °F 54.1 °F 99% 29.72 in 7.0 mi Calm Calm - N/A   Overcast
5:55 AM 55.9 °F 55.6 °F 99% 29.72 in 10.0 mi Calm Calm - N/A   Overcast
6:15 AM 57.2 °F 56.8 °F 99% 29.72 in 10.0 mi Calm Calm - N/A   Overcast
6:35 AM 59.5 °F 58.8 °F 97% 29.72 in 10.0 mi Calm Calm - N/A   Mostly Cloudy
6:55 AM 62.2 °F 59.2 °F 90% 29.71 in 10.0 mi Calm Calm - N/A Thunderstorm Mostly Cloudy
7:15 AM 63.1 °F 59.7 °F 89% 29.72 in 10.0 mi WSW 3.5 mph - N/A   Overcast
7:35 AM 64.4 °F 59.4 °F 84% 29.72 in 10.0 mi WNW 5.8 mph - N/A   Overcast
7:55 AM 65.5 °F 59.4 °F 81% 29.72 in 10.0 mi WNW 5.8 mph - N/A   Mostly Cloudy
8:15 AM 66.2 °F 59.5 °F 79% 29.73 in 10.0 mi WNW 4.6 mph - N/A   Overcast
8:35 AM 64.9 °F 59.2 °F 82% 29.74 in 10.0 mi WNW 5.8 mph - N/A Rain Light Rain
8:55 AM 64.2 °F 59.2 °F 84% 29.75 in 10.0 mi NW 8.1 mph - N/A   Light Drizzle
9:15 AM 63.7 °F 59.7 °F 87% 29.75 in 10.0 mi NW 6.9 mph - N/A   Light Drizzle
9:35 AM 65.3 °F 59.5 °F 82% 29.75 in 10.0 mi NW 6.9 mph - N/A   Overcast
9:55 AM 64.6 °F 59.4 °F 83% 29.75 in 10.0 mi North 5.8 mph - N/A   Overcast
10:15 AM 65.3 °F 58.8 °F 80% 29.76 in 10.0 mi North 8.1 mph 16.1 mph N/A   Overcast
10:35 AM 63.7 °F 58.3 °F 83% 29.77 in 10.0 mi North 6.9 mph - N/A   Overcast
10:55 AM 66.4 °F 59.0 °F 77% 29.77 in 10.0 mi NW 9.2 mph - N/A   Overcast
11:15 AM 64.8 °F 58.1 °F 79% 29.78 in 10.0 mi North 13.8 mph - N/A   Overcast
11:35 AM 61.7 °F 59.0 °F 91% 29.80 in 7.0 mi North 10.4 mph 20.7 mph N/A Rain Rain
12:54 PM 64.4 °F 57.2 °F 77% 29.82 in 10.0 mi NNE 10.4 mph 26.5 mph 0.01 in Rain Light Rain
1:00 PM 63.9 °F 58.3 °F 82% 29.82 in 10.0 mi NNE 11.5 mph 19.6 mph N/A   Mostly Cloudy
1:15 PM 66.7 °F 59.5 °F 78% 29.82 in 10.0 mi North 13.8 mph 19.6 mph N/A   Overcast
1:35 PM 65.1 °F 57.9 °F 77% 29.84 in 10.0 mi North 13.8 mph 19.6 mph N/A   Unknown
1:55 PM 61.7 °F 58.6 °F 90% 29.86 in 5.0 mi North 13.8 mph 19.6 mph N/A Rain Rain
2:15 PM 60.8 °F 57.7 °F 90% 29.87 in 10.0 mi North 12.7 mph 19.6 mph N/A   Overcast
2:35 PM 59.7 °F 56.5 °F 89% 29.89 in 10.0 mi NNE 15.0 mph 23.0 mph N/A   Overcast
3:15 PM 58.1 °F 55.4 °F 91% 29.91 in 5.0 mi NNE 11.5 mph 18.4 mph N/A Rain Light Rain
3:35 PM 57.7 °F 54.5 °F 89% 29.93 in 10.0 mi NNE 12.7 mph 23.0 mph N/A   Overcast
3:55 PM 59.0 °F 53.2 °F 81% 29.94 in 10.0 mi NNE 15.0 mph 21.9 mph N/A   Overcast
4:35 PM 60.8 °F 51.3 °F 71% 29.95 in 10.0 mi NNE 10.4 mph 18.4 mph N/A   Overcast
4:55 PM 60.6 °F 50.7 °F 70% 29.96 in 10.0 mi North 13.8 mph 21.9 mph N/A   Overcast
5:15 PM 62.1 °F 50.5 °F 66% 29.96 in 10.0 mi NNE 16.1 mph 21.9 mph N/A   Overcast
5:35 PM 61.7 °F 50.2 °F 66% 29.97 in 10.0 mi North 11.5 mph 18.4 mph N/A   Mostly Cloudy
5:55 PM 62.6 °F 49.8 °F 63% 29.97 in 10.0 mi NNE 10.4 mph 23.0 mph N/A   Scattered Clouds
6:15 PM 62.4 °F 50.2 °F 64% 29.98 in 10.0 mi North 12.7 mph 18.4 mph N/A   Scattered Clouds
6:35 PM 62.1 °F 50.5 °F 66% 29.99 in 10.0 mi North 10.4 mph - N/A   Scattered Clouds
6:55 PM 61.7 °F 51.1 °F 68% 29.99 in 10.0 mi North 10.4 mph 19.6 mph N/A   Scattered Clouds
7:15 PM 62.8 °F 51.1 °F 66% 30.00 in 10.0 mi NNW 15.0 mph 19.6 mph N/A   Mostly Cloudy
7:35 PM 61.9 °F 49.8 °F 65% 30.01 in 10.0 mi North 9.2 mph - N/A   Overcast
7:55 PM 60.3 °F 48.9 °F 66% 30.02 in 10.0 mi North 11.5 mph 18.4 mph N/A   Overcast
8:15 PM 59.4 °F 49.1 °F 69% 30.02 in 10.0 mi NNE 5.8 mph - N/A   Overcast
8:35 PM 58.5 °F 49.1 °F 71% 30.03 in 10.0 mi North 6.9 mph - N/A   Mostly Cloudy
8:55 PM 57.2 °F 49.3 °F 75% 30.03 in 10.0 mi NNW 6.9 mph - N/A   Scattered Clouds
9:15 PM 56.3 °F 50.0 °F 79% 30.04 in 10.0 mi NNW 8.1 mph - N/A   Clear
9:35 PM 55.6 °F 50.4 °F 83% 30.05 in 10.0 mi North 8.1 mph - N/A   Scattered Clouds
9:55 PM 55.8 °F 50.4 °F 82% 30.05 in 10.0 mi North 9.2 mph - N/A   Mostly Cloudy
10:15 PM 55.9 °F 50.2 °F 81% 30.06 in 10.0 mi North 5.8 mph - N/A   Overcast
10:35 PM 55.4 °F 50.0 °F 82% 30.06 in 10.0 mi North 6.9 mph - N/A   Mostly Cloudy
11:15 PM 55.4 °F 49.5 °F 80% 30.07 in 10.0 mi North 6.9 mph - N/A   Overcast
11:35 PM 54.9 °F 49.3 °F 81% 30.07 in 10.0 mi North 5.8 mph - N/A   Overcast
11:55 PM 54.5 °F 49.1 °F 82% 30.07 in 10.0 mi North 8.1 mph - N/A   Scattered Clouds